Time,TemperatureF,DewpointF,PressureIn,WindDirection,WindDirectionDegrees,WindSpeedMPH,WindSpeedGustMPH,Humidity,HourlyPrecipIn,Conditions,Clouds,dailyrainin,SoftwareType,DateUTC
2013-07-29 00:00:00,59.6,58.2,30.04,SE,134,0.0,0.0,95,0.00,,,0.00,Wunderground v.1.15,2013-07-29 05:00:00,
2013-07-29 00:06:00,59.5,58.1,30.04,SE,130,0.0,0.0,95,0.00,,,0.00,Wunderground v.1.15,2013-07-29 05:06:00,
2013-07-29 00:11:00,59.4,58.0,30.05,SE,130,0.0,0.0,95,0.00,,,0.00,Wunderground v.1.15,2013-07-29 05:11:00,
2013-07-29 00:17:00,59.2,57.8,30.04,SSW,197,0.0,0.0,95,0.00,,,0.00,Wunderground v.1.15,2013-07-29 05:17:00,
2013-07-29 00:22:00,59.1,57.7,30.04,SSW,195,0.0,0.0,95,0.00,,,0.00,Wunderground v.1.15,2013-07-29 05:22:00,
2013-07-29 00:28:00,59.0,57.6,30.05,SSW,195,0.0,0.0,95,0.00,,,0.00,Wunderground v.1.15,2013-07-29 05:28:00,
2013-07-29 00:34:00,58.8,57.4,30.04,SSW,195,0.0,0.0,95,0.00,,,0.00,Wunderground v.1.15,2013-07-29 05:34:00,
2013-07-29 00:40:00,58.6,57.2,30.04,SSW,195,0.0,0.0,95,0.00,,,0.00,Wunderground v.1.15,2013-07-29 05:40:00,
2013-07-29 00:45:00,58.5,57.1,30.05,SSW,195,0.0,0.0,95,0.00,,,0.00,Wunderground v.1.15,2013-07-29 05:45:00,
2013-07-29 00:50:00,58.5,57.1,30.05,SSW,195,0.0,0.0,95,0.00,,,0.00,Wunderground v.1.15,2013-07-29 05:50:00,
2013-07-29 00:56:00,58.4,57.3,30.05,SSW,195,0.0,0.0,96,0.00,,,0.00,Wunderground v.1.15,2013-07-29 05:56:00,
2013-07-29 01:02:00,58.2,57.1,30.05,SSW,195,0.0,0.0,96,0.00,,,0.00,Wunderground v.1.15,2013-07-29 06:02:00,
2013-07-29 01:07:00,58.3,57.2,30.05,SSW,196,0.0,0.0,96,0.00,,,0.00,Wunderground v.1.15,2013-07-29 06:07:00,
2013-07-29 01:12:00,58.3,57.2,30.05,SSW,195,0.0,0.0,96,0.00,,,0.00,Wunderground v.1.15,2013-07-29 06:12:00,
2013-07-29 01:17:00,58.2,57.1,30.05,SSW,195,0.0,0.0,96,0.00,,,0.00,Wunderground v.1.15,2013-07-29 06:17:00,
2013-07-29 01:22:00,58.1,57.0,30.05,SSW,195,0.0,0.0,96,0.00,,,0.00,Wunderground v.1.15,2013-07-29 06:22:00,
2013-07-29 01:28:00,58.1,57.0,30.04,SSW,195,0.0,0.0,96,0.00,,,0.00,Wunderground v.1.15,2013-07-29 06:28:00,
2013-07-29 01:33:00,58.0,56.9,30.04,SSW,195,0.0,0.0,96,0.00,,,0.00,Wunderground v.1.15,2013-07-29 06:33:00,
2013-07-29 01:38:00,58.1,57.0,30.04,SSW,195,0.0,0.0,96,0.00,,,0.00,Wunderground v.1.15,2013-07-29 06:38:00,
2013-07-29 01:44:00,58.0,56.9,30.04,SSW,195,0.0,0.0,96,0.00,,,0.00,Wunderground v.1.15,2013-07-29 06:44:00,
2013-07-29 01:49:00,57.8,56.7,30.04,SSW,195,0.0,0.0,96,0.00,,,0.00,Wunderground v.1.15,2013-07-29 06:49:00,
2013-07-29 01:55:00,57.5,56.4,30.04,SSW,195,0.0,0.0,96,0.00,,,0.00,Wunderground v.1.15,2013-07-29 06:55:00,
2013-07-29 02:00:00,57.3,56.2,30.04,SSW,196,0.0,0.0,96,0.00,,,0.00,Wunderground v.1.15,2013-07-29 07:00:00,
2013-07-29 02:06:00,57.4,56.3,30.05,SSW,195,0.0,0.0,96,0.00,,,0.00,Wunderground v.1.15,2013-07-29 07:06:00,
2013-07-29 02:11:00,57.3,56.2,30.04,SSW,195,0.0,0.0,96,0.00,,,0.00,Wunderground v.1.15,2013-07-29 07:11:00,
2013-07-29 02:16:00,57.5,56.7,30.05,SE,128,0.0,0.0,97,0.00,,,0.00,Wunderground v.1.15,2013-07-29 07:16:00,
2013-07-29 02:22:00,57.3,56.2,30.05,SE,130,0.0,0.0,96,0.00,,,0.00,Wunderground v.1.15,2013-07-29 07:22:00,
2013-07-29 02:27:00,57.5,56.7,30.05,SE,130,0.0,0.0,97,0.00,,,0.00,Wunderground v.1.15,2013-07-29 07:27:00,
2013-07-29 02:33:00,57.5,56.7,30.05,SE,130,0.0,0.0,97,0.00,,,0.00,Wunderground v.1.15,2013-07-29 07:33:00,
2013-07-29 02:38:00,57.3,56.5,30.05,SE,130,0.0,0.0,97,0.00,,,0.00,Wunderground v.1.15,2013-07-29 07:38:00,
2013-07-29 02:43:00,57.2,56.4,30.05,SE,129,0.0,0.0,97,0.00,,,0.00,Wunderground v.1.15,2013-07-29 07:43:00,
2013-07-29 02:48:00,57.0,56.2,30.06,SE,130,0.0,0.0,97,0.00,,,0.00,Wunderground v.1.15,2013-07-29 07:48:00,
2013-07-29 02:53:00,56.9,56.1,30.06,SE,129,0.0,0.0,97,0.00,,,0.00,Wunderground v.1.15,2013-07-29 07:53:00,
2013-07-29 02:59:00,56.9,56.1,30.06,SE,129,0.0,0.0,97,0.00,,,0.00,Wunderground v.1.15,2013-07-29 07:59:00,
2013-07-29 03:05:00,57.0,56.2,30.05,SE,130,0.0,0.0,97,0.00,,,0.00,Wunderground v.1.15,2013-07-29 08:05:00,
2013-07-29 03:10:00,56.9,56.1,30.05,SE,129,0.0,0.0,97,0.00,,,0.00,Wunderground v.1.15,2013-07-29 08:10:00,
2013-07-29 03:15:00,56.8,56.0,30.06,SE,129,0.0,0.0,97,0.00,,,0.00,Wunderground v.1.15,2013-07-29 08:15:00,
2013-07-29 03:21:00,56.9,56.1,30.06,SE,130,0.0,0.0,97,0.00,,,0.00,Wunderground v.1.15,2013-07-29 08:21:00,
2013-07-29 03:26:00,56.9,56.1,30.06,SE,129,0.0,0.0,97,0.00,,,0.00,Wunderground v.1.15,2013-07-29 08:26:00,
2013-07-29 03:31:00,56.7,55.9,30.05,SE,130,0.0,0.0,97,0.00,,,0.00,Wunderground v.1.15,2013-07-29 08:31:00,
2013-07-29 03:36:00,56.5,55.7,30.06,SE,130,0.0,0.0,97,0.00,,,0.00,Wunderground v.1.15,2013-07-29 08:36:00,
2013-07-29 03:41:00,56.7,55.9,30.06,SE,129,0.0,0.0,97,0.00,,,0.00,Wunderground v.1.15,2013-07-29 08:41:00,
2013-07-29 03:46:00,56.5,55.7,30.06,SE,130,0.0,0.0,97,0.00,,,0.00,Wunderground v.1.15,2013-07-29 08:46:00,
2013-07-29 03:51:00,56.4,55.6,30.07,SE,130,0.0,0.0,97,0.00,,,0.00,Wunderground v.1.15,2013-07-29 08:51:00,
2013-07-29 03:57:00,56.1,55.3,30.07,SE,129,0.0,0.0,97,0.00,,,0.00,Wunderground v.1.15,2013-07-29 08:57:00,
2013-07-29 04:02:00,55.8,55.0,30.07,SE,130,0.0,0.0,97,0.00,,,0.00,Wunderground v.1.15,2013-07-29 09:02:00,
2013-07-29 04:07:00,55.8,55.0,30.07,NE,34,0.0,0.0,97,0.00,,,0.00,Wunderground v.1.15,2013-07-29 09:07:00,
2013-07-29 04:13:00,55.9,55.1,30.07,NE,34,0.0,0.0,97,0.00,,,0.00,Wunderground v.1.15,2013-07-29 09:13:00,
2013-07-29 04:18:00,55.8,55.0,30.07,NE,34,0.0,0.0,97,0.00,,,0.00,Wunderground v.1.15,2013-07-29 09:18:00,
2013-07-29 04:24:00,55.6,54.8,30.08,NE,34,0.0,0.0,97,0.00,,,0.00,Wunderground v.1.15,2013-07-29 09:24:00,
2013-07-29 04:29:00,55.5,54.7,30.07,NE,34,0.0,0.0,97,0.00,,,0.00,Wunderground v.1.15,2013-07-29 09:29:00,
2013-07-29 04:34:00,55.7,54.9,30.07,NE,34,0.0,0.0,97,0.00,,,0.00,Wunderground v.1.15,2013-07-29 09:34:00,
2013-07-29 04:40:00,55.6,54.8,30.08,NE,34,0.0,0.0,97,0.00,,,0.00,Wunderground v.1.15,2013-07-29 09:40:00,
2013-07-29 04:45:00,55.6,54.8,30.08,NE,34,0.0,0.0,97,0.00,,,0.00,Wunderground v.1.15,2013-07-29 09:45:00,
2013-07-29 04:50:00,55.6,54.8,30.08,NE,34,0.0,0.0,97,0.00,,,0.00,Wunderground v.1.15,2013-07-29 09:50:00,
2013-07-29 04:56:00,55.6,54.8,30.08,NE,34,0.0,0.0,97,0.00,,,0.00,Wunderground v.1.15,2013-07-29 09:56:00,
2013-07-29 05:03:00,55.8,55.0,30.08,NE,34,0.0,0.0,97,0.00,,,0.00,Wunderground v.1.15,2013-07-29 10:03:00,
2013-07-29 05:08:00,55.8,55.0,30.08,NE,34,0.0,0.0,97,0.00,,,0.00,Wunderground v.1.15,2013-07-29 10:08:00,
2013-07-29 05:13:00,55.7,54.9,30.08,NE,34,0.0,0.0,97,0.00,,,0.00,Wunderground v.1.15,2013-07-29 10:13:00,
2013-07-29 05:19:00,55.5,54.7,30.09,NE,34,0.0,0.0,97,0.00,,,0.00,Wunderground v.1.15,2013-07-29 10:19:00,
2013-07-29 05:24:00,55.3,54.5,30.09,NE,34,0.0,0.0,97,0.00,,,0.00,Wunderground v.1.15,2013-07-29 10:24:00,
2013-07-29 05:30:00,55.2,54.4,30.09,NE,34,0.0,0.0,97,0.00,,,0.00,Wunderground v.1.15,2013-07-29 10:30:00,
2013-07-29 05:35:00,55.3,54.5,30.09,NE,34,0.0,0.0,97,0.00,,,0.00,Wunderground v.1.15,2013-07-29 10:35:00,
2013-07-29 05:40:00,55.1,54.3,30.09,NE,34,0.0,0.0,97,0.00,,,0.00,Wunderground v.1.15,2013-07-29 10:40:00,
2013-07-29 05:45:00,55.1,54.3,30.09,NE,34,0.0,0.0,97,0.00,,,0.00,Wunderground v.1.15,2013-07-29 10:45:00,
2013-07-29 05:51:00,55.4,54.6,30.09,NE,34,0.0,0.0,97,0.00,,,0.00,Wunderground v.1.15,2013-07-29 10:51:00,
2013-07-29 05:56:00,55.0,54.2,30.09,NE,34,0.0,0.0,97,0.00,,,0.00,Wunderground v.1.15,2013-07-29 10:56:00,
2013-07-29 06:02:00,55.0,54.2,30.09,NE,34,0.0,0.0,97,0.00,,,0.00,Wunderground v.1.15,2013-07-29 11:02:00,
2013-07-29 06:07:00,55.0,54.2,30.10,NE,34,0.0,0.0,97,0.00,,,0.00,Wunderground v.1.15,2013-07-29 11:07:00,
2013-07-29 06:12:00,55.4,54.6,30.10,NE,34,0.0,0.0,97,0.00,,,0.00,Wunderground v.1.15,2013-07-29 11:12:00,
2013-07-29 06:18:00,55.7,54.9,30.10,NE,34,0.0,0.0,97,0.00,,,0.00,Wunderground v.1.15,2013-07-29 11:18:00,
2013-07-29 06:23:00,56.1,55.3,30.10,NE,34,0.0,0.0,97,0.00,,,0.00,Wunderground v.1.15,2013-07-29 11:23:00,
2013-07-29 06:28:00,56.5,55.7,30.10,NE,34,0.0,0.0,97,0.00,,,0.00,Wunderground v.1.15,2013-07-29 11:28:00,
2013-07-29 06:34:00,57.9,57.1,30.10,NE,34,0.0,0.0,97,0.00,,,0.00,Wunderground v.1.15,2013-07-29 11:34:00,
2013-07-29 06:40:00,58.2,57.4,30.11,NE,34,0.0,0.0,97,0.00,,,0.00,Wunderground v.1.15,2013-07-29 11:40:00,
2013-07-29 06:45:00,59.0,58.2,30.11,NE,34,0.0,0.0,97,0.00,,,0.00,Wunderground v.1.15,2013-07-29 11:45:00,
2013-07-29 06:51:00,59.9,59.0,30.11,NE,34,0.0,0.0,97,0.00,,,0.00,Wunderground v.1.15,2013-07-29 11:51:00,
2013-07-29 06:56:00,60.5,59.4,30.12,NE,34,0.0,0.0,96,0.00,,,0.00,Wunderground v.1.15,2013-07-29 11:56:00,
2013-07-29 07:04:00,61.7,60.5,30.12,NE,34,0.0,0.0,96,0.00,,,0.00,Wunderground v.1.15,2013-07-29 12:04:00,
2013-07-29 07:10:00,62.7,61.5,30.12,NE,34,0.0,0.0,96,0.00,,,0.00,Wunderground v.1.15,2013-07-29 12:10:00,
2013-07-29 07:15:00,63.4,62.5,30.11,NE,34,0.0,0.0,97,0.00,,,0.00,Wunderground v.1.15,2013-07-29 12:15:00,
2013-07-29 07:20:00,64.5,63.6,30.12,NE,34,0.0,0.0,97,0.00,,,0.00,Wunderground v.1.15,2013-07-29 12:20:00,
2013-07-29 07:26:00,65.4,64.5,30.12,NE,34,0.0,0.0,97,0.00,,,0.00,Wunderground v.1.15,2013-07-29 12:26:00,
2013-07-29 07:31:00,65.6,64.4,30.12,NE,34,0.0,0.0,96,0.00,,,0.00,Wunderground v.1.15,2013-07-29 12:31:00,
2013-07-29 07:36:00,66.0,64.5,30.12,NE,34,0.0,0.0,95,0.00,,,0.00,Wunderground v.1.15,2013-07-29 12:36:00,
2013-07-29 07:42:00,66.8,65.0,30.12,NE,36,0.0,0.0,94,0.00,,,0.00,Wunderground v.1.15,2013-07-29 12:42:00,
2013-07-29 07:47:00,66.7,64.3,30.12,NE,36,0.0,0.0,92,0.00,,,0.00,Wunderground v.1.15,2013-07-29 12:47:00,
2013-07-29 07:52:00,66.8,64.1,30.12,NE,36,0.0,0.0,91,0.00,,,0.00,Wunderground v.1.15,2013-07-29 12:52:00,
2013-07-29 07:57:00,67.3,63.9,30.12,NE,35,0.0,0.0,89,0.00,,,0.00,Wunderground v.1.15,2013-07-29 12:57:00,
2013-07-29 08:03:00,67.8,63.8,30.12,NE,35,0.0,0.0,87,0.00,,,0.00,Wunderground v.1.15,2013-07-29 13:03:00,
2013-07-29 08:09:00,68.3,63.9,30.12,NE,36,0.0,0.0,86,0.00,,,0.00,Wunderground v.1.15,2013-07-29 13:09:00,
2013-07-29 08:15:00,69.0,63.3,30.12,ENE,70,0.0,1.0,82,0.00,,,0.00,Wunderground v.1.15,2013-07-29 13:15:00,
2013-07-29 08:20:00,68.5,62.8,30.12,ENE,63,0.0,0.0,82,0.00,,,0.00,Wunderground v.1.15,2013-07-29 13:20:00,
2013-07-29 08:25:00,68.7,63.0,30.12,ENE,64,0.0,0.0,82,0.00,,,0.00,Wunderground v.1.15,2013-07-29 13:25:00,
2013-07-29 08:30:00,68.9,62.1,30.13,East,86,0.0,0.0,79,0.00,,,0.00,Wunderground v.1.15,2013-07-29 13:30:00,
2013-07-29 08:36:00,68.9,62.5,30.13,ENE,72,0.0,0.0,80,0.00,,,0.00,Wunderground v.1.15,2013-07-29 13:36:00,
2013-07-29 08:41:00,69.4,63.0,30.13,ENE,78,0.0,0.0,80,0.00,,,0.00,Wunderground v.1.15,2013-07-29 13:41:00,
2013-07-29 08:47:00,70.1,62.9,30.13,East,89,0.0,1.0,78,0.00,,,0.00,Wunderground v.1.15,2013-07-29 13:47:00,
2013-07-29 08:52:00,70.6,62.7,30.13,NE,51,0.0,0.0,76,0.00,,,0.00,Wunderground v.1.15,2013-07-29 13:52:00,
2013-07-29 08:58:00,70.9,62.6,30.13,ENE,77,0.0,2.0,75,0.00,,,0.00,Wunderground v.1.15,2013-07-29 13:58:00,
2013-07-29 09:04:00,71.2,63.2,30.13,East,84,0.0,0.0,76,0.00,,,0.00,Wunderground v.1.15,2013-07-29 14:04:00,
2013-07-29 09:10:00,71.6,62.5,30.13,NE,46,0.0,1.0,73,0.00,,,0.00,Wunderground v.1.15,2013-07-29 14:10:00,
2013-07-29 09:15:00,72.1,63.7,30.13,East,96,0.0,1.0,75,0.00,,,0.00,Wunderground v.1.15,2013-07-29 14:15:00,
2013-07-29 09:21:00,72.7,62.8,30.13,ENE,70,0.0,3.0,71,0.00,,,0.00,Wunderground v.1.15,2013-07-29 14:21:00,
2013-07-29 09:26:00,72.8,62.8,30.13,ENE,71,1.0,3.0,71,0.00,,,0.00,Wunderground v.1.15,2013-07-29 14:26:00,
2013-07-29 09:32:00,72.9,62.5,30.13,NE,51,1.0,3.0,70,0.00,,,0.00,Wunderground v.1.15,2013-07-29 14:32:00,
2013-07-29 09:37:00,73.2,62.8,30.13,NNE,30,1.0,3.0,70,0.00,,,0.00,Wunderground v.1.15,2013-07-29 14:37:00,
2013-07-29 09:43:00,74.0,63.6,30.13,NE,40,1.0,2.0,70,0.00,,,0.00,Wunderground v.1.15,2013-07-29 14:43:00,
2013-07-29 09:48:00,74.2,63.4,30.13,East,101,1.0,2.0,69,0.00,,,0.00,Wunderground v.1.15,2013-07-29 14:48:00,
2013-07-29 09:53:00,74.6,62.5,30.13,North,359,1.0,2.0,66,0.00,,,0.00,Wunderground v.1.15,2013-07-29 14:53:00,
2013-07-29 09:59:00,74.8,61.8,30.13,North,353,1.0,2.0,64,0.00,,,0.00,Wunderground v.1.15,2013-07-29 14:59:00,
2013-07-29 10:05:00,75.3,62.7,30.13,North,6,1.0,3.0,65,0.00,,,0.00,Wunderground v.1.15,2013-07-29 15:05:00,
2013-07-29 10:10:00,76.1,63.0,30.13,ENE,75,1.0,2.0,64,0.00,,,0.00,Wunderground v.1.15,2013-07-29 15:10:00,
2013-07-29 10:16:00,76.1,62.1,30.13,SE,130,1.0,2.0,62,0.00,,,0.00,Wunderground v.1.15,2013-07-29 15:16:00,
2013-07-29 10:21:00,76.6,63.1,30.14,East,79,1.0,1.0,63,0.00,,,0.00,Wunderground v.1.15,2013-07-29 15:21:00,
2013-07-29 10:26:00,77.0,63.0,30.14,SE,139,1.0,2.0,62,0.00,,,0.00,Wunderground v.1.15,2013-07-29 15:26:00,
2013-07-29 10:32:00,77.8,62.3,30.14,SSE,153,1.0,1.0,59,0.00,,,0.00,Wunderground v.1.15,2013-07-29 15:32:00,
2013-07-29 10:38:00,78.5,62.0,30.14,ESE,110,0.0,1.0,57,0.00,,,0.00,Wunderground v.1.15,2013-07-29 15:38:00,
2013-07-29 10:43:00,78.7,62.7,30.14,West,260,0.0,1.0,58,0.00,,,0.00,Wunderground v.1.15,2013-07-29 15:43:00,
2013-07-29 10:48:00,78.9,63.4,30.14,SW,231,1.0,4.0,59,0.00,,,0.00,Wunderground v.1.15,2013-07-29 15:48:00,
2013-07-29 10:54:00,78.4,60.9,30.14,WSW,246,2.0,4.0,55,0.00,,,0.00,Wunderground v.1.15,2013-07-29 15:54:00,
2013-07-29 10:59:00,78.3,60.8,30.14,East,89,2.0,4.0,55,0.00,,,0.00,Wunderground v.1.15,2013-07-29 15:59:00,
2013-07-29 11:05:00,78.3,61.8,30.14,WNW,294,1.0,2.0,57,0.00,,,0.00,Wunderground v.1.15,2013-07-29 16:05:00,
2013-07-29 11:10:00,78.5,63.9,30.14,West,277,2.0,4.0,61,0.00,,,0.00,Wunderground v.1.15,2013-07-29 16:10:00,
2013-07-29 11:15:00,77.9,59.4,30.14,WNW,293,3.0,5.0,53,0.00,,,0.00,Wunderground v.1.15,2013-07-29 16:15:00,
2013-07-29 11:21:00,78.0,61.5,30.14,WNW,288,2.0,3.0,57,0.00,,,0.00,Wunderground v.1.15,2013-07-29 16:21:00,
2013-07-29 11:26:00,78.1,61.1,30.15,West,269,1.0,3.0,56,0.00,,,0.00,Wunderground v.1.15,2013-07-29 16:26:00,
2013-07-29 11:32:00,79.2,61.1,30.14,South,184,1.0,1.0,54,0.00,,,0.00,Wunderground v.1.15,2013-07-29 16:32:00,
2013-07-29 11:37:00,80.3,63.7,30.14,ENE,57,1.0,2.0,57,0.00,,,0.00,Wunderground v.1.15,2013-07-29 16:37:00,
2013-07-29 11:42:00,79.7,58.3,30.14,West,277,2.0,4.0,48,0.00,,,0.00,Wunderground v.1.15,2013-07-29 16:42:00,
2013-07-29 11:48:00,79.7,60.5,30.14,NW,316,2.0,4.0,52,0.00,,,0.00,Wunderground v.1.15,2013-07-29 16:48:00,
2013-07-29 11:53:00,79.4,59.1,30.14,WNW,294,2.0,4.0,50,0.00,,,0.00,Wunderground v.1.15,2013-07-29 16:53:00,
2013-07-29 11:58:00,79.3,59.0,30.14,WSW,256,2.0,4.0,50,0.00,,,0.00,Wunderground v.1.15,2013-07-29 16:58:00,
2013-07-29 12:04:00,79.4,59.7,30.14,SSW,195,1.0,2.0,51,0.00,,,0.00,Wunderground v.1.15,2013-07-29 17:04:00,
2013-07-29 12:09:00,80.5,61.3,30.14,SE,136,0.0,2.0,52,0.00,,,0.00,Wunderground v.1.15,2013-07-29 17:09:00,
2013-07-29 12:15:00,81.0,61.7,30.14,WNW,283,0.0,2.0,52,0.00,,,0.00,Wunderground v.1.15,2013-07-29 17:15:00,
2013-07-29 12:20:00,80.3,59.4,30.14,West,279,1.0,2.0,49,0.00,,,0.00,Wunderground v.1.15,2013-07-29 17:20:00,
2013-07-29 12:26:00,79.6,59.9,30.14,NW,316,3.0,5.0,51,0.00,,,0.00,Wunderground v.1.15,2013-07-29 17:26:00,
2013-07-29 12:31:00,79.3,60.7,30.14,WNW,297,4.0,4.0,53,0.00,,,0.00,Wunderground v.1.15,2013-07-29 17:31:00,
2013-07-29 12:36:00,79.3,57.9,30.14,WSW,246,3.0,4.0,48,0.00,,,0.00,Wunderground v.1.15,2013-07-29 17:36:00,
2013-07-29 12:42:00,78.9,59.8,30.14,West,260,3.0,4.0,52,0.00,,,0.00,Wunderground v.1.15,2013-07-29 17:42:00,
2013-07-29 12:48:00,78.6,58.4,30.13,WNW,285,3.0,5.0,50,0.00,,,0.00,Wunderground v.1.15,2013-07-29 17:48:00,
2013-07-29 12:53:00,78.7,59.6,30.14,WNW,284,2.0,3.0,52,0.00,,,0.00,Wunderground v.1.15,2013-07-29 17:53:00,
2013-07-29 12:58:00,78.9,59.2,30.14,West,279,2.0,6.0,51,0.00,,,0.00,Wunderground v.1.15,2013-07-29 17:58:00,
2013-07-29 13:04:00,79.7,62.1,30.14,SSW,205,1.0,2.0,55,0.00,,,0.00,Wunderground v.1.15,2013-07-29 18:04:00,
2013-07-29 13:10:00,80.4,60.6,30.14,WNW,293,0.0,5.0,51,0.00,,,0.00,Wunderground v.1.15,2013-07-29 18:10:00,
2013-07-29 13:16:00,79.9,59.6,30.13,WNW,296,1.0,5.0,50,0.00,,,0.00,Wunderground v.1.15,2013-07-29 18:16:00,
2013-07-29 13:21:00,79.5,61.9,30.13,WNW,290,3.0,5.0,55,0.00,,,0.00,Wunderground v.1.15,2013-07-29 18:21:00,
2013-07-29 13:27:00,79.2,61.6,30.13,West,277,5.0,6.0,55,0.00,,,0.00,Wunderground v.1.15,2013-07-29 18:27:00,
2013-07-29 13:33:00,78.9,60.8,30.14,NW,307,4.0,5.0,54,0.00,,,0.00,Wunderground v.1.15,2013-07-29 18:33:00,
2013-07-29 13:39:00,79.6,60.4,30.13,West,276,4.0,7.0,52,0.00,,,0.00,Wunderground v.1.15,2013-07-29 18:39:00,
2013-07-29 13:44:00,79.6,62.5,30.13,SW,222,3.0,4.0,56,0.00,,,0.00,Wunderground v.1.15,2013-07-29 18:44:00,
2013-07-29 13:50:00,79.0,60.4,30.13,WSW,243,3.0,3.0,53,0.00,,,0.00,Wunderground v.1.15,2013-07-29 18:50:00,
2013-07-29 13:55:00,78.5,61.0,30.13,West,267,3.0,3.0,55,0.00,,,0.00,Wunderground v.1.15,2013-07-29 18:55:00,
2013-07-29 14:00:00,78.6,61.1,30.13,WNW,287,2.0,5.0,55,0.00,,,0.00,Wunderground v.1.15,2013-07-29 19:00:00,
2013-07-29 14:07:00,78.8,62.8,30.13,West,267,2.0,5.0,58,0.00,,,0.00,Wunderground v.1.15,2013-07-29 19:07:00,
2013-07-29 14:13:00,78.8,61.8,30.13,WNW,298,2.0,5.0,56,0.00,,,0.00,Wunderground v.1.15,2013-07-29 19:13:00,
2013-07-29 14:18:00,79.2,62.7,30.13,West,281,3.0,5.0,57,0.00,,,0.00,Wunderground v.1.15,2013-07-29 19:18:00,
2013-07-29 14:23:00,79.5,61.9,30.13,West,263,3.0,3.0,55,0.00,,,0.00,Wunderground v.1.15,2013-07-29 19:23:00,
2013-07-29 14:29:00,79.6,61.5,30.12,SSW,204,2.0,3.0,54,0.00,,,0.00,Wunderground v.1.15,2013-07-29 19:29:00,
2013-07-29 14:35:00,79.9,61.8,30.12,West,274,2.0,2.0,54,0.00,,,0.00,Wunderground v.1.15,2013-07-29 19:35:00,
2013-07-29 14:40:00,79.8,61.1,30.12,WSW,242,2.0,2.0,53,0.00,,,0.00,Wunderground v.1.15,2013-07-29 19:40:00,
2013-07-29 14:45:00,79.3,61.2,30.12,WNW,283,2.0,4.0,54,0.00,,,0.00,Wunderground v.1.15,2013-07-29 19:45:00,
2013-07-29 14:50:00,79.0,61.5,30.12,West,278,3.0,3.0,55,0.00,,,0.00,Wunderground v.1.15,2013-07-29 19:50:00,
2013-07-29 14:55:00,78.8,60.2,30.12,WNW,283,3.0,3.0,53,0.00,,,0.00,Wunderground v.1.15,2013-07-29 19:55:00,
2013-07-29 15:00:00,78.7,60.7,30.12,WSW,255,2.0,2.0,54,0.00,,,0.00,Wunderground v.1.15,2013-07-29 20:00:00,
2013-07-29 15:06:00,79.2,61.6,30.11,SSW,200,1.0,2.0,55,0.00,,,0.00,Wunderground v.1.15,2013-07-29 20:06:00,
2013-07-29 15:11:00,79.7,62.6,30.11,West,278,0.0,1.0,56,0.00,,,0.00,Wunderground v.1.15,2013-07-29 20:11:00,
2013-07-29 15:16:00,80.3,66.1,30.12,West,277,1.0,3.0,62,0.00,,,0.00,Wunderground v.1.15,2013-07-29 20:16:00,
2013-07-29 15:22:00,80.0,60.8,30.12,SW,232,2.0,5.0,52,0.00,,,0.00,Wunderground v.1.15,2013-07-29 20:22:00,
2013-07-29 15:27:00,80.2,61.5,30.12,West,281,2.0,5.0,53,0.00,,,0.00,Wunderground v.1.15,2013-07-29 20:27:00,
2013-07-29 15:32:00,80.2,62.0,30.12,SE,136,1.0,3.0,54,0.00,,,0.00,Wunderground v.1.15,2013-07-29 20:32:00,
2013-07-29 15:37:00,80.2,62.0,30.12,West,262,1.0,3.0,54,0.00,,,0.00,Wunderground v.1.15,2013-07-29 20:37:00,
2013-07-29 15:43:00,80.1,62.0,30.12,West,274,1.0,2.0,54,0.00,,,0.00,Wunderground v.1.15,2013-07-29 20:43:00,
2013-07-29 15:48:00,79.8,62.2,30.13,WNW,287,1.0,2.0,55,0.00,,,0.00,Wunderground v.1.15,2013-07-29 20:48:00,
2013-07-29 15:53:00,79.9,61.2,30.13,West,281,1.0,2.0,53,0.00,,,0.00,Wunderground v.1.15,2013-07-29 20:53:00,
2013-07-29 15:59:00,80.2,62.6,30.13,WNW,290,2.0,3.0,55,0.00,,,0.00,Wunderground v.1.15,2013-07-29 20:59:00,
2013-07-29 16:05:00,80.5,62.3,30.13,WNW,294,2.0,4.0,54,0.00,,,0.00,Wunderground v.1.15,2013-07-29 21:05:00,
2013-07-29 16:10:00,80.8,63.1,30.13,NW,307,2.0,2.0,55,0.00,,,0.00,Wunderground v.1.15,2013-07-29 21:10:00,
2013-07-29 16:15:00,80.5,61.8,30.13,SSW,198,2.0,3.0,53,0.00,,,0.00,Wunderground v.1.15,2013-07-29 21:15:00,
2013-07-29 16:21:00,80.1,63.0,30.13,WNW,285,2.0,3.0,56,0.00,,,0.00,Wunderground v.1.15,2013-07-29 21:21:00,
2013-07-29 16:26:00,79.7,62.1,30.13,West,263,2.0,3.0,55,0.00,,,0.00,Wunderground v.1.15,2013-07-29 21:26:00,
2013-07-29 16:31:00,79.8,62.7,30.13,West,274,2.0,2.0,56,0.00,,,0.00,Wunderground v.1.15,2013-07-29 21:31:00,
2013-07-29 16:37:00,80.0,62.9,30.13,NW,304,1.0,2.0,56,0.00,,,0.00,Wunderground v.1.15,2013-07-29 21:37:00,
2013-07-29 16:43:00,80.2,63.6,30.13,NW,308,1.0,4.0,57,0.00,,,0.00,Wunderground v.1.15,2013-07-29 21:43:00,
2013-07-29 16:49:00,80.6,62.9,30.13,WNW,283,1.0,4.0,55,0.00,,,0.00,Wunderground v.1.15,2013-07-29 21:49:00,
2013-07-29 16:54:00,80.7,63.0,30.13,West,280,2.0,3.0,55,0.00,,,0.00,Wunderground v.1.15,2013-07-29 21:54:00,
2013-07-29 17:00:00,80.4,63.3,30.13,West,277,1.0,1.0,56,0.00,,,0.00,Wunderground v.1.15,2013-07-29 22:00:00,
2013-07-29 17:07:00,80.1,64.5,30.13,SSW,204,0.0,2.0,59,0.00,,,0.00,Wunderground v.1.15,2013-07-29 22:07:00,
2013-07-29 17:12:00,79.9,65.7,30.13,NW,314,0.0,0.0,62,0.00,,,0.00,Wunderground v.1.15,2013-07-29 22:12:00,
2013-07-29 17:17:00,79.7,67.8,30.13,NW,314,0.0,0.0,67,0.00,,,0.00,Wunderground v.1.15,2013-07-29 22:17:00,
2013-07-29 17:22:00,79.4,67.9,30.13,NW,314,0.0,0.0,68,0.00,,,0.00,Wunderground v.1.15,2013-07-29 22:22:00,
2013-07-29 17:28:00,79.3,68.2,30.12,NW,314,0.0,0.0,69,0.00,,,0.00,Wunderground v.1.15,2013-07-29 22:28:00,
2013-07-29 17:33:00,79.2,69.4,30.12,NW,314,0.0,0.0,72,0.00,,,0.00,Wunderground v.1.15,2013-07-29 22:33:00,
2013-07-29 17:39:00,79.2,69.0,30.12,NW,314,0.0,0.0,71,0.00,,,0.00,Wunderground v.1.15,2013-07-29 22:39:00,
2013-07-29 17:45:00,79.0,69.2,30.12,NW,314,0.0,0.0,72,0.00,,,0.00,Wunderground v.1.15,2013-07-29 22:45:00,
2013-07-29 17:50:00,78.2,69.2,30.12,NW,314,0.0,0.0,74,0.00,,,0.00,Wunderground v.1.15,2013-07-29 22:50:00,
2013-07-29 17:56:00,77.5,69.3,30.12,NW,314,0.0,0.0,76,0.00,,,0.00,Wunderground v.1.15,2013-07-29 22:56:00,
2013-07-29 18:01:00,77.0,68.9,30.12,NW,314,0.0,0.0,76,0.00,,,0.00,Wunderground v.1.15,2013-07-29 23:01:00,
2013-07-29 18:06:00,76.4,68.3,30.12,NW,314,0.0,0.0,76,0.00,,,0.00,Wunderground v.1.15,2013-07-29 23:06:00,
2013-07-29 18:12:00,75.9,68.5,30.12,NW,314,0.0,0.0,78,0.00,,,0.00,Wunderground v.1.15,2013-07-29 23:12:00,
2013-07-29 18:17:00,75.6,67.9,30.12,NW,314,0.0,0.0,77,0.00,,,0.00,Wunderground v.1.15,2013-07-29 23:17:00,
2013-07-29 18:22:00,75.2,67.5,30.12,NW,314,0.0,0.0,77,0.00,,,0.00,Wunderground v.1.15,2013-07-29 23:22:00,
2013-07-29 18:27:00,74.8,68.2,30.11,NW,314,0.0,0.0,80,0.00,,,0.00,Wunderground v.1.15,2013-07-29 23:27:00,
2013-07-29 18:33:00,74.3,68.1,30.11,NW,314,0.0,0.0,81,0.00,,,0.00,Wunderground v.1.15,2013-07-29 23:33:00,
2013-07-29 18:39:00,74.1,68.3,30.12,NW,315,0.0,0.0,82,0.00,,,0.00,Wunderground v.1.15,2013-07-29 23:39:00,
2013-07-29 18:44:00,74.1,68.3,30.12,NW,314,0.0,0.0,82,0.00,,,0.00,Wunderground v.1.15,2013-07-29 23:44:00,
2013-07-29 18:49:00,74.0,68.2,30.12,NW,314,0.0,0.0,82,0.00,,,0.00,Wunderground v.1.15,2013-07-29 23:49:00,
2013-07-29 18:55:00,73.8,67.2,30.12,NW,315,0.0,0.0,80,0.00,,,0.00,Wunderground v.1.15,2013-07-29 23:55:00,
2013-07-29 19:00:00,73.6,67.8,30.12,NW,314,0.0,0.0,82,0.00,,,0.00,Wunderground v.1.15,2013-07-30 00:00:00,
2013-07-29 19:06:00,73.2,67.4,30.12,NW,315,0.0,0.0,82,0.00,,,0.00,Wunderground v.1.15,2013-07-30 00:06:00,
2013-07-29 19:12:00,72.8,66.6,30.12,NW,315,0.0,0.0,81,0.00,,,0.00,Wunderground v.1.15,2013-07-30 00:12:00,
2013-07-29 19:18:00,72.6,67.5,30.13,NW,315,0.0,0.0,84,0.00,,,0.00,Wunderground v.1.15,2013-07-30 00:18:00,
2013-07-29 19:24:00,72.5,67.7,30.13,NW,315,0.0,0.0,85,0.00,,,0.00,Wunderground v.1.15,2013-07-30 00:24:00,
2013-07-29 19:29:00,72.1,67.0,30.12,NW,314,0.0,0.0,84,0.00,,,0.00,Wunderground v.1.15,2013-07-30 00:29:00,
2013-07-29 19:34:00,71.8,67.0,30.12,NW,314,0.0,0.0,85,0.00,,,0.00,Wunderground v.1.15,2013-07-30 00:34:00,
2013-07-29 19:41:00,71.4,66.7,30.12,NW,315,0.0,0.0,85,0.00,,,0.00,Wunderground v.1.15,2013-07-30 00:41:00,
2013-07-29 19:46:00,71.2,66.1,30.12,NE,36,0.0,0.0,84,0.00,,,0.00,Wunderground v.1.15,2013-07-30 00:46:00,
2013-07-29 19:52:00,71.2,65.8,30.12,NE,36,0.0,0.0,83,0.00,,,0.00,Wunderground v.1.15,2013-07-30 00:52:00,
2013-07-29 19:58:00,71.0,65.9,30.12,NE,36,0.0,0.0,84,0.00,,,0.00,Wunderground v.1.15,2013-07-30 00:58:00,
2013-07-29 20:03:00,70.9,66.2,30.12,NE,36,0.0,0.0,85,0.00,,,0.00,Wunderground v.1.15,2013-07-30 01:03:00,
2013-07-29 20:10:00,70.6,66.2,30.12,NE,36,0.0,0.0,86,0.00,,,0.00,Wunderground v.1.15,2013-07-30 01:10:00,
2013-07-29 20:16:00,70.1,65.7,30.12,NE,36,0.0,0.0,86,0.00,,,0.00,Wunderground v.1.15,2013-07-30 01:16:00,
2013-07-29 20:22:00,69.7,65.0,30.12,NE,35,0.0,0.0,85,0.00,,,0.00,Wunderground v.1.15,2013-07-30 01:22:00,
2013-07-29 20:27:00,69.5,65.1,30.12,NE,36,0.0,0.0,86,0.00,,,0.00,Wunderground v.1.15,2013-07-30 01:27:00,
2013-07-29 20:32:00,69.3,65.3,30.13,NE,36,0.0,0.0,87,0.00,,,0.00,Wunderground v.1.15,2013-07-30 01:32:00,
2013-07-29 20:38:00,69.1,65.1,30.13,NE,36,0.0,0.0,87,0.00,,,0.00,Wunderground v.1.15,2013-07-30 01:38:00,
2013-07-29 20:43:00,68.9,64.9,30.13,NE,36,0.0,0.0,87,0.00,,,0.00,Wunderground v.1.15,2013-07-30 01:43:00,
2013-07-29 20:48:00,68.8,65.1,30.13,NE,46,0.0,0.0,88,0.00,,,0.00,Wunderground v.1.15,2013-07-30 01:48:00,
2013-07-29 20:53:00,68.8,64.4,30.13,SE,141,0.0,0.0,86,0.00,,,0.00,Wunderground v.1.15,2013-07-30 01:53:00,
2013-07-29 20:59:00,68.9,64.9,30.13,SE,128,0.0,0.0,87,0.00,,,0.00,Wunderground v.1.15,2013-07-30 01:59:00,
2013-07-29 21:05:00,68.8,65.1,30.13,SE,128,0.0,0.0,88,0.00,,,0.00,Wunderground v.1.15,2013-07-30 02:05:00,
2013-07-29 21:10:00,68.6,65.2,30.14,SE,128,0.0,0.0,89,0.00,,,0.00,Wunderground v.1.15,2013-07-30 02:10:00,
2013-07-29 21:16:00,68.4,64.7,30.13,SE,128,0.0,0.0,88,0.00,,,0.00,Wunderground v.1.15,2013-07-30 02:16:00,
2013-07-29 21:21:00,68.6,65.2,30.13,ESE,105,0.0,0.0,89,0.00,,,0.00,Wunderground v.1.15,2013-07-30 02:21:00,
2013-07-29 21:26:00,68.7,65.6,30.14,ESE,105,0.0,0.0,90,0.00,,,0.00,Wunderground v.1.15,2013-07-30 02:26:00,
2013-07-29 21:31:00,68.5,65.4,30.14,ESE,105,0.0,0.0,90,0.00,,,0.00,Wunderground v.1.15,2013-07-30 02:31:00,
2013-07-29 21:37:00,68.4,65.4,30.14,ESE,105,0.0,0.0,90,0.00,,,0.00,Wunderground v.1.15,2013-07-30 02:37:00,
2013-07-29 21:42:00,68.2,65.2,30.14,ESE,104,0.0,0.0,90,0.00,,,0.00,Wunderground v.1.15,2013-07-30 02:42:00,
2013-07-29 21:48:00,68.1,65.4,30.14,ESE,105,0.0,0.0,91,0.00,,,0.00,Wunderground v.1.15,2013-07-30 02:48:00,
2013-07-29 21:53:00,68.1,65.1,30.14,WSW,250,0.0,0.0,90,0.00,,,0.00,Wunderground v.1.15,2013-07-30 02:53:00,
2013-07-29 21:58:00,68.3,65.3,30.14,SE,127,0.0,1.0,90,0.00,,,0.00,Wunderground v.1.15,2013-07-30 02:58:00,
2013-07-29 22:04:00,68.2,65.2,30.14,SE,127,0.0,0.0,90,0.00,,,0.00,Wunderground v.1.15,2013-07-30 03:04:00,
2013-07-29 22:09:00,68.1,65.1,30.15,SE,127,0.0,0.0,90,0.00,,,0.00,Wunderground v.1.15,2013-07-30 03:09:00,
2013-07-29 22:15:00,68.1,65.1,30.15,North,1,0.0,0.0,90,0.00,,,0.00,Wunderground v.1.15,2013-07-30 03:15:00,
2013-07-29 22:21:00,68.1,65.1,30.14,North,1,0.0,0.0,90,0.00,,,0.00,Wunderground v.1.15,2013-07-30 03:21:00,
2013-07-29 22:26:00,67.9,65.2,30.14,North,3,0.0,0.0,91,0.00,,,0.00,Wunderground v.1.15,2013-07-30 03:26:00,
2013-07-29 22:31:00,67.6,65.2,30.14,North,4,0.0,0.0,92,0.00,,,0.00,Wunderground v.1.15,2013-07-30 03:31:00,
2013-07-29 22:37:00,67.3,64.9,30.14,North,3,0.0,0.0,92,0.00,,,0.00,Wunderground v.1.15,2013-07-30 03:37:00,
2013-07-29 22:42:00,67.2,64.8,30.14,North,4,0.0,0.0,92,0.00,,,0.00,Wunderground v.1.15,2013-07-30 03:42:00,
2013-07-29 22:47:00,67.1,64.7,30.14,North,4,0.0,0.0,92,0.00,,,0.00,Wunderground v.1.15,2013-07-30 03:47:00,
2013-07-29 22:54:00,66.8,64.4,30.14,North,4,0.0,0.0,92,0.00,,,0.00,Wunderground v.1.15,2013-07-30 03:54:00,
2013-07-29 23:01:00,66.6,64.5,30.14,North,4,0.0,0.0,93,0.00,,,0.00,Wunderground v.1.15,2013-07-30 04:01:00,
2013-07-29 23:02:00,66.7,64.6,30.14,North,4,0.0,0.0,93,0.00,,,0.00,Wunderground v.1.15,2013-07-30 04:02:00,
2013-07-29 23:03:00,66.7,64.6,30.14,North,4,0.0,0.0,93,0.00,,,0.00,Wunderground v.1.15,2013-07-30 04:03:00,
2013-07-29 23:08:00,66.6,64.5,30.14,North,4,0.0,0.0,93,0.00,,,0.00,Wunderground v.1.15,2013-07-30 04:08:00,
2013-07-29 23:09:00,66.6,64.5,30.14,North,4,0.0,0.0,93,0.00,,,0.00,Wunderground v.1.15,2013-07-30 04:09:00,
2013-07-29 23:12:00,66.7,64.6,30.14,North,3,0.0,0.0,93,0.00,,,0.00,Wunderground v.1.15,2013-07-30 04:12:00,
2013-07-29 23:17:00,66.8,64.7,30.13,North,3,0.0,0.0,93,0.00,,,0.00,Wunderground v.1.15,2013-07-30 04:17:00,
2013-07-29 23:22:00,66.8,64.7,30.14,North,3,0.0,0.0,93,0.00,,,0.00,Wunderground v.1.15,2013-07-30 04:22:00,
2013-07-29 23:27:00,66.9,64.8,30.14,North,4,0.0,0.0,93,0.00,,,0.00,Wunderground v.1.15,2013-07-30 04:27:00,
2013-07-29 23:33:00,66.9,65.1,30.14,North,4,0.0,0.0,94,0.00,,,0.00,Wunderground v.1.15,2013-07-30 04:33:00,
2013-07-29 23:38:00,67.0,65.2,30.14,North,4,0.0,0.0,94,0.00,,,0.00,Wunderground v.1.15,2013-07-30 04:38:00,
2013-07-29 23:43:00,67.0,64.9,30.14,North,4,0.0,0.0,93,0.00,,,0.00,Wunderground v.1.15,2013-07-30 04:43:00,
2013-07-29 23:49:00,67.1,65.0,30.13,North,4,0.0,0.0,93,0.00,,,0.00,Wunderground v.1.15,2013-07-30 04:49:00,
2013-07-29 23:54:00,67.2,65.4,30.13,North,3,0.0,0.0,94,0.00,,,0.00,Wunderground v.1.15,2013-07-30 04:54:00,
2013-07-29 23:59:00,67.3,65.5,30.13,ESE,107,0.0,0.0,94,0.00,,,0.00,Wunderground v.1.15,2013-07-30 04:59:00,